Location: Beuvrequen
(50.8014°N, 1.6652°E)
Time: 08:33:44
(UTC+00:00)

Lacrosse 4 Rocket - Visible Passes

Search period start: 23 September 2023 00:00
Search period end: 03 October 2023 00:00
Orbit: 530 x 606 km, 68.0° (Epoch: 22 September)

Date Brightness Start Highest point End Pass type
(mag) Time Alt. Az. Time Alt. Az. Time Alt. Az.
23 Sep 3.6 02:19:33 19° E 02:19:33 19° E 02:22:13 10° ENE visible
23 Sep 1.5 03:55:39 35° WSW 03:57:12 60° NW 04:01:28 10° NNE visible
24 Sep 3.4 02:21:01 24° E 02:21:01 24° E 02:23:43 10° NE visible
24 Sep 1.9 03:57:06 34° W 03:58:23 45° NW 04:02:33 10° NNE visible
25 Sep 3.2 02:22:24 29° ENE 02:22:24 29° ENE 02:25:04 10° NE visible
25 Sep 2.3 03:58:30 30° WNW 03:59:37 35° NW 04:03:36 10° NNE visible
26 Sep 3.1 02:23:45 32° ENE 02:23:45 32° ENE 02:26:19 10° NE visible
26 Sep 2.6 03:59:50 25° WNW 04:00:51 28° NW 04:04:36 10° NNE visible
27 Sep 3.1 02:25:03 33° NE 02:25:03 33° NE 02:27:30 10° NE visible
27 Sep 2.9 04:01:08 21° WNW 04:02:07 23° NW 04:05:35 10° NNE visible
28 Sep 3.2 02:26:18 31° NNE 02:26:18 31° NNE 02:28:38 10° NE visible
28 Sep 3.2 04:02:23 17° NW 04:03:25 19° NNW 04:06:32 10° NNE visible
29 Sep 3.3 02:27:31 28° NNE 02:27:31 28° NNE 02:29:43 10° NNE visible
29 Sep 3.4 04:03:36 15° NW 04:04:43 16° NNW 04:07:27 10° N visible
30 Sep 3.4 02:28:42 25° NNE 02:28:42 25° NNE 02:30:45 10° NNE visible
30 Sep 3.6 04:04:46 12° NW 04:06:04 14° NNW 04:08:19 10° N visible
01 Oct 3.6 02:29:51 22° N 02:29:51 22° N 02:31:45 10° NNE visible
01 Oct 3.8 04:05:55 10° NW 04:07:25 12° NNW 04:09:06 10° N visible
02 Oct 3.7 02:30:59 20° N 02:30:59 20° N 02:32:43 10° NNE visible
02 Oct 4.0 04:07:53 10° NNW 04:08:47 11° NNW 04:09:41 10° N visible
